Погода в Туртасе

Россия / Тюменская область     58°56′26″N   69°08′40″E
темп.,
°C
ветер,
м/с
пор.,
м/с
влажн.,
%
обл.,
%
осадки,
мм/ч
давл.,
гПа
погр.,
м
26 января, вт
вт2623:00−24ююв4898100 0.8 1031296
02:00−23ююв4998100 1.1 1028300
05:00−22ююв3797100 1.6 1026291
08:00−20ююв3697100 0.3 1024222
11:00−16ююв3695100 0.6 1023199
14:00−10ю369599 0.4 1021211
17:00−3юз399799 0.7 1019351
20:000зюз51297100 0.4 1018559
27 января, ср
ср2723:00−1зюз51297100 1.6 1017699
02:00−2з51195100 0.6 1017612
05:00−5з41194100 1.0 1018466
08:00−5з4994100 0.1 1020479
11:00−6з4894100 0.3 1021418
14:00−6з3694100 0.1 1023380
17:00−7з229799 0.3 102568
20:00−7юз239796 0.3 1025114
28 января, чт
чт2823:00−7юз269798 0.4 1024153
02:00−6юз3796100 0.2 1023344
05:00−7ююз4994100 0.3 1021383
08:00−6юз51194100 0.1 1018541
11:00−4юз51292100 0.2 1015805
14:00−2зюз61388100 0.1 1013911
17:00−1зюз61296100 2.1 1012997
20:00−2з51196100 1.4 1012933
29 января, пт
пт2923:00−3з51193100 2.1 1014755
02:00−4з4109498 0.1 1016559
05:00−7зсз389697 0.2 1019357
08:00−16ссз3796100 0.1 1021210
11:00−20с369595 0.1 1025293
14:00−21с359270 0.0 1028346
17:00−26с369467 0.0 1031224
20:00−30св389566 0.0 1034232
30 января, сб
сб3023:00−32всв269474 0.0 1036170
02:00−33всв389354 0.0 1036190
05:00−33в389354 0.0 1036216
08:00−32в4109198 0.0 1035298
11:00−29в599199 0.0 1034307
14:00−26в41091100 0.0 1032326
17:00−26в51193100 0.0 1030340
20:00−25вюв41096100 0.1 1028375